This is the latest recevied weather packets stored in our database for station/object KD8OZS. If no packets are shown the sender has not sent any weather packets the latest 10 day(s).
| Time | Temp. | Humidity | Pressure | Rain* | Wind** | Luminosity | Snow |
|---|---|---|---|---|---|---|---|
| 1777243172 | 15° C | 73% | 1011.7 hPa | 0 mm | - | 40 W/m² | - |
| 1777242868 | 15° C | 72% | 1011.6 hPa | 0 mm | - | 41 W/m² | - |
| 1777242566 | 15° C | 72% | 1011.8 hPa | 0 mm | - | 43 W/m² | - |
| 1777242261 | 15° C | 74% | 1011.8 hPa | 0 mm | - | 45 W/m² | - |
| 1777241959 | 15° C | 74% | 1011.8 hPa | 0 mm | - | 48 W/m² | - |
| 1777241656 | 15° C | 74% | 1011.8 hPa | 0 mm | - | 50 W/m² | - |
| 1777241352 | 15° C | 74% | 1011.8 hPa | 0 mm | - | 52 W/m² | - |
| 1777241050 | 15° C | 74% | 1011.6 hPa | 0 mm | - | 53 W/m² | - |
| 1777240748 | 15° C | 73% | 1011.7 hPa | 0 mm | - | 55 W/m² | - |
| 1777240446 | 15° C | 75% | 1011.8 hPa | 0 mm | - | 55 W/m² | - |
| 1777240143 | 15° C | 73% | 1011.9 hPa | 0 mm | - | 63 W/m² | - |
| 1777239841 | 15° C | 72% | 1011.6 hPa | 0 mm | - | 65 W/m² | - |
| 1777239536 | 15° C | 73% | 1011.4 hPa | 0 mm | - | 101 W/m² | - |
| 1777239233 | 15° C | 74% | 1011.4 hPa | 0 mm | - | 307 W/m² | - |
| 1777238931 | 15° C | 71% | 1011.3 hPa | 0 mm | - | 355 W/m² | - |
| 1777238628 | 15.56° C | 74% | 1011.4 hPa | 0 mm | - | 357 W/m² | - |
| 1777238325 | 15.56° C | 73% | 1011.4 hPa | 0 mm | - | 456 W/m² | - |
| 1777238021 | 15.56° C | 73% | 1011.4 hPa | 0 mm | - | 478 W/m² | - |
| 1777237718 | 15° C | 74% | 1011.3 hPa | 0 mm | - | 496 W/m² | - |
| 1777237415 | 15° C | 74% | 1011.4 hPa | 0 mm | - | 505 W/m² | - |
| 1777237112 | 15° C | 74% | 1011.3 hPa | 0 mm | - | 422 W/m² | - |
| 1777236810 | 14.44° C | 76% | 1011.4 hPa | 0 mm | - | 351 W/m² | - |
| 1777236509 | 14.44° C | 76% | 1011.1 hPa | 0 mm | - | 470 W/m² | - |
| 1777236206 | 14.44° C | 76% | 1011.3 hPa | 0 mm | - | 531 W/m² | - |
| 1777235901 | 14.44° C | 75% | 1011.6 hPa | 0 mm | - | 555 W/m² | - |
* Rain latest hour (hover to see other rain measurements)
** Current wind speed in m/s (hover to see current wind gust speed)